Time,TemperatureF,DewpointF,PressureIn,WindDirection,WindDirectionDegrees,WindSpeedMPH,WindSpeedGustMPH,Humidity,HourlyPrecipIn,Conditions,Clouds,dailyrainin,SoftwareType,DateUTC
2013-06-25 00:00:00,68.6,65.5,29.71,SE,145,0.0,0.0,90,0.00,,,0.00,Wunderground v.1.15,2013-06-25 05:00:00,
2013-06-25 00:10:00,68.6,65.9,29.71,SE,140,0.0,0.0,91,0.00,,,0.00,Wunderground v.1.15,2013-06-25 05:10:00,
2013-06-25 00:20:00,68.6,65.9,29.70,SE,126,0.0,0.0,91,0.00,,,0.00,Wunderground v.1.15,2013-06-25 05:20:00,
2013-06-25 00:25:00,68.4,66.0,29.70,SE,127,0.0,0.0,92,0.00,,,0.00,Wunderground v.1.15,2013-06-25 05:25:00,
2013-06-25 00:30:00,68.4,66.0,29.69,SSE,157,0.0,1.0,92,0.00,,,0.00,Wunderground v.1.15,2013-06-25 05:30:00,
2013-06-25 00:40:00,68.3,65.9,29.69,SSE,161,1.0,1.0,92,0.00,,,0.00,Wunderground v.1.15,2013-06-25 05:40:00,
2013-06-25 00:50:00,68.3,65.9,29.70,SSE,167,2.0,2.0,92,0.00,,,0.00,Wunderground v.1.15,2013-06-25 05:50:00,
2013-06-25 00:55:00,68.3,65.9,29.70,SSE,164,1.0,2.0,92,0.00,,,0.00,Wunderground v.1.15,2013-06-25 05:55:00,
2013-06-25 01:00:00,68.1,66.0,29.70,SSE,157,1.0,1.0,93,0.00,,,0.00,Wunderground v.1.15,2013-06-25 06:00:00,
2013-06-25 01:10:00,67.9,65.8,29.70,SSE,157,1.0,2.0,93,0.00,,,0.00,Wunderground v.1.15,2013-06-25 06:10:00,
2013-06-25 01:20:00,67.9,66.1,29.70,SSE,162,2.0,4.0,94,0.00,,,0.00,Wunderground v.1.15,2013-06-25 06:20:00,
2013-06-25 01:30:00,67.9,66.1,29.70,SSE,167,4.0,4.0,94,0.00,,,0.00,Wunderground v.1.15,2013-06-25 06:30:00,
2013-06-25 01:40:00,67.9,66.1,29.70,SSE,161,4.0,4.0,94,0.00,,,0.00,Wunderground v.1.15,2013-06-25 06:40:00,
2013-06-25 01:50:00,67.8,66.0,29.70,SSE,165,1.0,4.0,94,0.00,,,0.00,Wunderground v.1.15,2013-06-25 06:50:00,
2013-06-25 02:00:00,67.8,66.0,29.70,SSE,155,0.0,2.0,94,0.00,,,0.00,Wunderground v.1.15,2013-06-25 07:00:00,
2013-06-25 02:10:00,67.6,65.8,29.70,SSE,162,0.0,0.0,94,0.00,,,0.00,Wunderground v.1.15,2013-06-25 07:10:00,
2013-06-25 02:15:00,67.6,65.8,29.70,SSE,161,0.0,1.0,94,0.00,,,0.00,Wunderground v.1.15,2013-06-25 07:15:00,
2013-06-25 02:25:00,67.4,65.6,29.70,SSE,152,1.0,1.0,94,0.00,,,0.00,Wunderground v.1.15,2013-06-25 07:25:00,
2013-06-25 02:30:00,67.4,65.6,29.70,SSE,162,1.0,2.0,94,0.00,,,0.00,Wunderground v.1.15,2013-06-25 07:30:00,
2013-06-25 02:40:00,67.4,65.3,29.70,SSE,165,3.0,9.0,93,0.00,,,0.00,Wunderground v.1.15,2013-06-25 07:40:00,
2013-06-25 02:45:00,67.4,65.3,29.70,South,172,5.0,9.0,93,0.00,,,0.00,Wunderground v.1.15,2013-06-25 07:45:00,
2013-06-25 02:55:00,67.4,65.0,29.70,South,171,5.0,6.0,92,0.00,,,0.00,Wunderground v.1.15,2013-06-25 07:55:00,
2013-06-25 03:05:00,67.4,65.0,29.70,SSE,164,5.0,5.0,92,0.00,,,0.00,Wunderground v.1.15,2013-06-25 08:05:00,
2013-06-25 03:10:00,67.4,65.0,29.70,SSE,161,4.0,8.0,92,0.00,,,0.00,Wunderground v.1.15,2013-06-25 08:10:00,
2013-06-25 03:15:00,67.4,65.0,29.70,South,169,5.0,8.0,92,0.00,,,0.00,Wunderground v.1.15,2013-06-25 08:15:00,
2013-06-25 03:25:00,67.3,64.9,29.70,SSE,155,3.0,8.0,92,0.00,,,0.00,Wunderground v.1.15,2013-06-25 08:25:00,
2013-06-25 03:30:00,67.3,64.9,29.70,SSE,168,1.0,1.0,92,0.00,,,0.00,Wunderground v.1.15,2013-06-25 08:30:00,
2013-06-25 03:40:00,67.1,64.7,29.70,SSE,168,0.0,0.0,92,0.00,,,0.00,Wunderground v.1.15,2013-06-25 08:40:00,
2013-06-25 03:50:00,66.9,64.5,29.70,SSE,162,0.0,0.0,92,0.00,,,0.00,Wunderground v.1.15,2013-06-25 08:50:00,
2013-06-25 04:00:00,66.8,64.4,29.69,SSE,158,0.0,0.0,92,0.00,,,0.00,Wunderground v.1.15,2013-06-25 09:00:00,
2013-06-25 04:10:00,66.6,64.2,29.69,SSE,161,0.0,0.0,92,0.00,,,0.00,Wunderground v.1.15,2013-06-25 09:10:00,
2013-06-25 04:15:00,66.4,64.0,29.68,SSE,161,0.0,0.0,92,0.00,,,0.00,Wunderground v.1.15,2013-06-25 09:15:00,
2013-06-25 04:25:00,66.4,64.0,29.68,SSE,164,0.0,0.0,92,0.00,,,0.00,Wunderground v.1.15,2013-06-25 09:25:00,
2013-06-25 04:30:00,66.4,64.0,29.67,East,86,0.0,0.0,92,0.00,,,0.00,Wunderground v.1.15,2013-06-25 09:30:00,
2013-06-25 04:40:00,66.3,63.9,29.67,SSE,151,0.0,0.0,92,0.00,,,0.00,Wunderground v.1.15,2013-06-25 09:40:00,
2013-06-25 04:45:00,66.1,63.7,29.67,SE,141,0.0,0.0,92,0.00,,,0.00,Wunderground v.1.15,2013-06-25 09:45:00,
2013-06-25 04:55:00,66.0,63.6,29.67,SSE,154,0.0,1.0,92,0.00,,,0.00,Wunderground v.1.15,2013-06-25 09:55:00,
2013-06-25 05:05:00,65.8,63.7,29.67,East,89,0.0,0.0,93,0.00,,,0.00,Wunderground v.1.15,2013-06-25 10:05:00,
2013-06-25 05:15:00,65.8,63.7,29.68,SSE,162,1.0,1.0,93,0.00,,,0.00,Wunderground v.1.15,2013-06-25 10:15:00,
2013-06-25 05:25:00,65.6,63.5,29.68,SSE,148,0.0,1.0,93,0.00,,,0.00,Wunderground v.1.15,2013-06-25 10:25:00,
2013-06-25 05:35:00,65.5,63.4,29.67,SSE,161,0.0,0.0,93,0.00,,,0.00,Wunderground v.1.15,2013-06-25 10:35:00,
2013-06-25 05:45:00,65.2,63.1,29.68,SE,138,0.0,0.0,93,0.00,,,0.00,Wunderground v.1.15,2013-06-25 10:45:00,
2013-06-25 05:55:00,65.2,63.1,29.68,SSE,160,0.0,0.0,93,0.00,,,0.00,Wunderground v.1.15,2013-06-25 10:55:00,
2013-06-25 06:00:00,65.2,63.1,29.69,SSE,168,1.0,1.0,93,0.00,,,0.00,Wunderground v.1.15,2013-06-25 11:00:00,
2013-06-25 06:10:00,65.3,63.5,29.69,SSE,161,1.0,1.0,94,0.00,,,0.00,Wunderground v.1.15,2013-06-25 11:10:00,
2013-06-25 06:20:00,65.6,63.8,29.69,SSE,164,1.0,8.0,94,0.00,,,0.00,Wunderground v.1.15,2013-06-25 11:20:00,
2013-06-25 06:30:00,66.0,63.9,29.69,SSE,161,2.0,2.0,93,0.00,,,0.00,Wunderground v.1.15,2013-06-25 11:30:00,
2013-06-25 06:40:00,66.3,63.9,29.69,South,169,4.0,4.0,92,0.00,,,0.00,Wunderground v.1.15,2013-06-25 11:40:00,
2013-06-25 06:50:00,66.4,63.7,29.69,SSE,157,3.0,3.0,91,0.00,,,0.00,Wunderground v.1.15,2013-06-25 11:50:00,
2013-06-25 07:00:00,66.6,63.6,29.68,SSE,158,2.0,8.0,90,0.00,,,0.00,Wunderground v.1.15,2013-06-25 12:00:00,
2013-06-25 07:10:00,66.9,63.9,29.68,SSE,165,3.0,3.0,90,0.00,,,0.00,Wunderground v.1.15,2013-06-25 12:10:00,
2013-06-25 07:15:00,67.4,64.4,29.68,SSE,165,2.0,3.0,90,0.00,,,0.00,Wunderground v.1.15,2013-06-25 12:15:00,
2013-06-25 07:25:00,67.8,64.4,29.68,SSE,158,0.0,0.0,89,0.00,,,0.00,Wunderground v.1.15,2013-06-25 12:25:00,
2013-06-25 07:30:00,67.9,64.2,29.68,ESE,112,0.0,0.0,88,0.00,,,0.00,Wunderground v.1.15,2013-06-25 12:30:00,
2013-06-25 07:40:00,68.4,64.7,29.68,SSE,161,0.0,0.0,88,0.00,,,0.00,Wunderground v.1.15,2013-06-25 12:40:00,
2013-06-25 07:45:00,68.8,64.8,29.68,SSE,154,0.0,0.0,87,0.00,,,0.00,Wunderground v.1.15,2013-06-25 12:45:00,
2013-06-25 07:55:00,68.9,64.9,29.68,SSE,162,0.0,0.0,87,0.00,,,0.00,Wunderground v.1.15,2013-06-25 12:55:00,
2013-06-25 08:05:00,68.9,64.9,29.67,South,174,0.0,0.0,87,0.00,,,0.00,Wunderground v.1.15,2013-06-25 13:05:00,
2013-06-25 08:10:00,68.9,64.9,29.67,SSE,161,0.0,0.0,87,0.00,,,0.00,Wunderground v.1.15,2013-06-25 13:10:00,
2013-06-25 08:15:00,69.1,65.1,29.67,SSE,164,0.0,0.0,87,0.00,,,0.00,Wunderground v.1.15,2013-06-25 13:15:00,
2013-06-25 08:25:00,69.4,65.4,29.67,SSE,161,0.0,0.0,87,0.00,,,0.00,Wunderground v.1.15,2013-06-25 13:25:00,
2013-06-25 08:35:00,69.6,65.2,29.67,SSE,161,0.0,0.0,86,0.00,,,0.00,Wunderground v.1.15,2013-06-25 13:35:00,
2013-06-25 08:40:00,69.6,65.2,29.67,SSE,162,0.0,0.0,86,0.00,,,0.00,Wunderground v.1.15,2013-06-25 13:40:00,
2013-06-25 08:50:00,69.8,65.4,29.68,SSE,167,0.0,0.0,86,0.00,,,0.00,Wunderground v.1.15,2013-06-25 13:50:00,
2013-06-25 09:00:00,70.1,65.7,29.69,SSE,164,0.0,0.0,86,0.00,,,0.00,Wunderground v.1.15,2013-06-25 14:00:00,
2013-06-25 09:10:00,70.6,66.2,29.69,SSE,164,0.0,0.0,86,0.00,,,0.00,Wunderground v.1.15,2013-06-25 14:10:00,
2013-06-25 09:20:00,71.1,66.4,29.67,South,172,0.0,0.0,85,0.00,,,0.00,Wunderground v.1.15,2013-06-25 14:20:00,
2013-06-25 09:30:00,71.8,66.7,29.67,SE,127,0.0,0.0,84,0.00,,,0.00,Wunderground v.1.15,2013-06-25 14:30:00,
2013-06-25 09:40:00,72.3,67.2,29.67,SSE,157,0.0,0.0,84,0.00,,,0.00,Wunderground v.1.15,2013-06-25 14:40:00,
2013-06-25 09:45:00,72.7,67.2,29.67,SSE,161,0.0,0.0,83,0.00,,,0.00,Wunderground v.1.15,2013-06-25 14:45:00,
2013-06-25 09:55:00,73.2,67.4,29.67,SSE,167,0.0,0.0,82,0.00,,,0.00,Wunderground v.1.15,2013-06-25 14:55:00,
2013-06-25 10:05:00,73.9,68.1,29.67,South,181,0.0,0.0,82,0.00,,,0.00,Wunderground v.1.15,2013-06-25 15:05:00,
2013-06-25 10:15:00,73.9,67.3,29.67,SSE,157,0.0,0.0,80,0.00,,,0.00,Wunderground v.1.15,2013-06-25 15:15:00,
2013-06-25 10:25:00,74.2,68.0,29.67,SSE,155,0.0,0.0,81,0.00,,,0.00,Wunderground v.1.15,2013-06-25 15:25:00,
2013-06-25 10:35:00,74.4,67.5,29.67,SSE,165,0.0,0.0,79,0.00,,,0.00,Wunderground v.1.15,2013-06-25 15:35:00,
2013-06-25 10:45:00,73.7,67.9,29.68,SSE,148,0.0,0.0,82,0.00,,,0.00,Wunderground v.1.15,2013-06-25 15:45:00,
2013-06-25 10:55:00,73.3,67.8,29.68,South,169,0.0,0.0,83,0.00,,,0.00,Wunderground v.1.15,2013-06-25 15:55:00,
2013-06-25 11:00:00,73.3,67.8,29.68,SSE,167,0.0,0.0,83,0.00,,,0.00,Wunderground v.1.15,2013-06-25 16:00:00,
2013-06-25 11:05:00,73.3,67.8,29.68,South,171,0.0,0.0,83,0.00,,,0.00,Wunderground v.1.15,2013-06-25 16:05:00,
2013-06-25 11:10:00,73.9,68.4,29.68,SSE,157,0.0,0.0,83,0.00,,,0.00,Wunderground v.1.15,2013-06-25 16:10:00,
2013-06-25 11:20:00,74.6,68.4,29.67,SSW,206,0.0,0.0,81,0.00,,,0.00,Wunderground v.1.15,2013-06-25 16:20:00,
2013-06-25 11:25:00,75.1,68.5,29.67,South,169,0.0,0.0,80,0.00,,,0.00,Wunderground v.1.15,2013-06-25 16:25:00,
2013-06-25 11:30:00,75.4,68.4,29.67,South,169,0.0,0.0,79,0.00,,,0.00,Wunderground v.1.15,2013-06-25 16:30:00,
2013-06-25 11:40:00,76.3,68.2,29.67,SSE,160,0.0,0.0,76,0.00,,,0.00,Wunderground v.1.15,2013-06-25 16:40:00,
2013-06-25 11:45:00,76.3,67.8,29.66,South,171,0.0,0.0,75,0.00,,,0.00,Wunderground v.1.15,2013-06-25 16:45:00,
2013-06-25 11:55:00,76.7,68.2,29.66,South,174,0.0,0.0,75,0.00,,,0.00,Wunderground v.1.15,2013-06-25 16:55:00,
2013-06-25 12:05:00,77.2,67.1,29.66,SSE,161,0.0,0.0,71,0.00,,,0.00,Wunderground v.1.15,2013-06-25 17:05:00,
2013-06-25 12:10:00,77.4,66.4,29.66,SSE,155,0.0,0.0,69,0.00,,,0.00,Wunderground v.1.15,2013-06-25 17:10:00,
2013-06-25 12:15:00,78.1,66.7,29.66,ESE,114,0.0,0.0,68,0.00,,,0.00,Wunderground v.1.15,2013-06-25 17:15:00,
2013-06-25 12:25:00,78.6,66.7,29.66,SSW,192,0.0,0.0,67,0.00,,,0.00,Wunderground v.1.15,2013-06-25 17:25:00,
2013-06-25 12:35:00,79.0,67.1,29.66,South,175,0.0,0.0,67,0.00,,,0.00,Wunderground v.1.15,2013-06-25 17:35:00,
2013-06-25 12:40:00,79.0,65.8,29.66,South,171,0.0,0.0,64,0.00,,,0.00,Wunderground v.1.15,2013-06-25 17:40:00,
2013-06-25 12:50:00,79.6,67.2,29.66,South,169,0.0,0.0,66,0.00,,,0.00,Wunderground v.1.15,2013-06-25 17:50:00,
2013-06-25 13:00:00,79.9,68.0,29.65,SSE,155,0.0,0.0,67,0.00,,,0.00,Wunderground v.1.15,2013-06-25 18:00:00,
2013-06-25 13:10:00,79.9,68.4,29.65,South,172,0.0,0.0,68,0.00,,,0.00,Wunderground v.1.15,2013-06-25 18:10:00,
2013-06-25 13:20:00,80.1,68.2,29.65,South,181,0.0,0.0,67,0.00,,,0.00,Wunderground v.1.15,2013-06-25 18:20:00,
2013-06-25 13:25:00,80.3,68.8,29.65,South,174,0.0,0.0,68,0.00,,,0.00,Wunderground v.1.15,2013-06-25 18:25:00,
2013-06-25 13:30:00,80.3,67.9,29.64,SSE,164,0.0,0.0,66,0.00,,,0.00,Wunderground v.1.15,2013-06-25 18:30:00,
2013-06-25 13:40:00,80.3,68.8,29.64,SSE,154,0.0,0.0,68,0.00,,,0.00,Wunderground v.1.15,2013-06-25 18:40:00,
2013-06-25 13:45:00,80.5,69.0,29.64,South,171,0.0,0.0,68,0.00,,,0.00,Wunderground v.1.15,2013-06-25 18:45:00,
2013-06-25 13:55:00,80.7,68.7,29.64,SSE,162,0.0,0.0,67,0.00,,,0.00,Wunderground v.1.15,2013-06-25 18:55:00,
2013-06-25 14:05:00,81.1,69.1,29.64,SE,141,0.0,0.0,67,0.00,,,0.00,Wunderground v.1.15,2013-06-25 19:05:00,
2013-06-25 14:15:00,81.1,69.1,29.64,East,96,0.0,0.0,67,0.00,,,0.00,Wunderground v.1.15,2013-06-25 19:15:00,
2013-06-25 14:25:00,81.2,70.1,29.64,SSE,161,0.0,0.0,69,0.00,,,0.00,Wunderground v.1.15,2013-06-25 19:25:00,
2013-06-25 14:35:00,81.4,68.9,29.64,ESE,112,0.0,0.0,66,0.00,,,0.00,Wunderground v.1.15,2013-06-25 19:35:00,
2013-06-25 14:40:00,81.6,70.0,29.64,SSE,158,0.0,0.0,68,0.00,,,0.00,Wunderground v.1.15,2013-06-25 19:40:00,
2013-06-25 14:50:00,81.6,69.1,29.64,South,171,0.0,0.0,66,0.00,,,0.00,Wunderground v.1.15,2013-06-25 19:50:00,
2013-06-25 15:00:00,81.4,69.8,29.65,SSE,168,0.0,0.0,68,0.00,,,0.00,Wunderground v.1.15,2013-06-25 20:00:00,
2013-06-25 15:10:00,81.6,69.6,29.65,SSE,165,0.0,0.0,67,0.00,,,0.00,Wunderground v.1.15,2013-06-25 20:10:00,
2013-06-25 15:20:00,82.4,70.3,29.64,East,99,0.0,0.0,67,0.00,,,0.00,Wunderground v.1.15,2013-06-25 20:20:00,
2013-06-25 15:30:00,82.2,70.1,29.64,SSE,164,0.0,0.0,67,0.00,,,0.00,Wunderground v.1.15,2013-06-25 20:30:00,
2013-06-25 15:40:00,82.4,69.9,29.64,SSE,160,0.0,0.0,66,0.00,,,0.00,Wunderground v.1.15,2013-06-25 20:40:00,
2013-06-25 15:50:00,82.4,70.3,29.64,SE,138,0.0,0.0,67,0.00,,,0.00,Wunderground v.1.15,2013-06-25 20:50:00,
2013-06-25 15:55:00,82.6,70.1,29.64,SE,127,0.0,0.0,66,0.00,,,0.00,Wunderground v.1.15,2013-06-25 20:55:00,
2013-06-25 16:00:00,82.6,70.1,29.63,East,97,0.0,0.0,66,0.00,,,0.00,Wunderground v.1.15,2013-06-25 21:00:00,
2013-06-25 16:10:00,83.0,70.9,29.63,ESE,120,0.0,4.0,67,0.00,,,0.00,Wunderground v.1.15,2013-06-25 21:10:00,
2013-06-25 16:15:00,82.8,70.3,29.63,ESE,102,1.0,4.0,66,0.00,,,0.00,Wunderground v.1.15,2013-06-25 21:15:00,
2013-06-25 16:25:00,82.8,69.8,29.63,SSE,155,2.0,6.0,65,0.00,,,0.00,Wunderground v.1.15,2013-06-25 21:25:00,
2013-06-25 16:35:00,82.8,69.8,29.63,SSE,160,3.0,3.0,65,0.00,,,0.00,Wunderground v.1.15,2013-06-25 21:35:00,
2013-06-25 16:40:00,83.0,70.5,29.63,SSE,158,3.0,3.0,66,0.00,,,0.00,Wunderground v.1.15,2013-06-25 21:40:00,
2013-06-25 16:45:00,83.0,70.5,29.63,SE,126,4.0,4.0,66,0.00,,,0.00,Wunderground v.1.15,2013-06-25 21:45:00,
2013-06-25 16:55:00,83.0,70.5,29.63,SSE,165,4.0,6.0,66,0.00,,,0.00,Wunderground v.1.15,2013-06-25 21:55:00,
2013-06-25 17:05:00,82.8,70.3,29.63,SSW,198,4.0,6.0,66,0.00,,,0.00,Wunderground v.1.15,2013-06-25 22:05:00,
2013-06-25 17:10:00,82.6,70.5,29.63,East,92,4.0,4.0,67,0.00,,,0.00,Wunderground v.1.15,2013-06-25 22:10:00,
2013-06-25 17:20:00,82.8,70.3,29.63,ESE,103,2.0,6.0,66,0.00,,,0.00,Wunderground v.1.15,2013-06-25 22:20:00,
2013-06-25 17:30:00,82.6,70.5,29.62,SE,143,2.0,2.0,67,0.00,,,0.00,Wunderground v.1.15,2013-06-25 22:30:00,
2013-06-25 17:40:00,82.8,70.7,29.62,SSE,150,3.0,3.0,67,0.00,,,0.00,Wunderground v.1.15,2013-06-25 22:40:00,
2013-06-25 17:45:00,82.6,70.5,29.62,ESE,123,3.0,7.0,67,0.00,,,0.00,Wunderground v.1.15,2013-06-25 22:45:00,
2013-06-25 17:55:00,82.4,70.8,29.62,ESE,120,3.0,6.0,68,0.00,,,0.00,Wunderground v.1.15,2013-06-25 22:55:00,
2013-06-25 18:00:00,82.2,70.6,29.62,ESE,113,2.0,2.0,68,0.00,,,0.00,Wunderground v.1.15,2013-06-25 23:00:00,
2013-06-25 18:10:00,82.0,71.2,29.62,South,182,2.0,2.0,70,0.00,,,0.00,Wunderground v.1.15,2013-06-25 23:10:00,
2013-06-25 18:15:00,82.2,71.4,29.61,ENE,78,2.0,2.0,70,0.00,,,0.00,Wunderground v.1.15,2013-06-25 23:15:00,
2013-06-25 18:25:00,82.4,70.8,29.61,ESE,112,0.0,0.0,68,0.00,,,0.00,Wunderground v.1.15,2013-06-25 23:25:00,
2013-06-25 18:35:00,82.2,71.0,29.61,SSE,151,0.0,0.0,69,0.00,,,0.00,Wunderground v.1.15,2013-06-25 23:35:00,
2013-06-25 18:40:00,82.0,71.2,29.61,SE,127,0.0,0.0,70,0.00,,,0.00,Wunderground v.1.15,2013-06-25 23:40:00,
2013-06-25 18:45:00,81.8,71.1,29.61,SSE,148,0.0,0.0,70,0.00,,,0.00,Wunderground v.1.15,2013-06-25 23:45:00,
2013-06-25 18:55:00,81.2,70.9,29.61,SSE,155,0.0,0.0,71,0.00,,,0.00,Wunderground v.1.15,2013-06-25 23:55:00,
2013-06-25 19:05:00,80.7,70.8,29.61,SSW,212,0.0,0.0,72,0.00,,,0.00,Wunderground v.1.15,2013-06-26 00:05:00,
2013-06-25 19:10:00,80.5,71.0,29.61,SSE,155,0.0,0.0,73,0.00,,,0.00,Wunderground v.1.15,2013-06-26 00:10:00,
2013-06-25 19:20:00,80.3,71.3,29.61,SSE,155,0.0,0.0,74,0.00,,,0.00,Wunderground v.1.15,2013-06-26 00:20:00,
2013-06-25 19:30:00,80.5,71.4,29.61,SSE,162,0.0,0.0,74,0.00,,,0.00,Wunderground v.1.15,2013-06-26 00:30:00,
2013-06-25 19:40:00,80.5,71.0,29.61,SE,130,0.0,0.0,73,0.00,,,0.00,Wunderground v.1.15,2013-06-26 00:40:00,
2013-06-25 19:50:00,80.5,71.4,29.60,SE,131,0.0,0.0,74,0.00,,,0.00,Wunderground v.1.15,2013-06-26 00:50:00,
2013-06-25 20:00:00,80.1,71.1,29.60,SE,131,0.0,0.0,74,0.00,,,0.00,Wunderground v.1.15,2013-06-26 01:00:00,
2013-06-25 20:10:00,79.9,70.9,29.60,SE,131,0.0,0.0,74,0.00,,,0.00,Wunderground v.1.15,2013-06-26 01:10:00,
2013-06-25 20:20:00,79.6,71.0,29.60,SE,141,0.0,0.0,75,0.00,,,0.00,Wunderground v.1.15,2013-06-26 01:20:00,
2013-06-25 20:25:00,79.6,71.4,29.60,SE,145,0.0,0.0,76,0.00,,,0.00,Wunderground v.1.15,2013-06-26 01:25:00,
2013-06-25 20:35:00,79.2,71.0,29.59,SSE,154,0.0,0.0,76,0.00,,,0.00,Wunderground v.1.15,2013-06-26 01:35:00,
2013-06-25 20:45:00,78.8,71.0,29.59,SE,136,0.0,0.0,77,0.00,,,0.00,Wunderground v.1.15,2013-06-26 01:45:00,
2013-06-25 20:55:00,78.5,71.4,29.59,SSE,148,0.0,0.0,79,0.00,,,0.00,Wunderground v.1.15,2013-06-26 01:55:00,
2013-06-25 21:05:00,78.3,71.2,29.58,SE,131,0.0,0.0,79,0.00,,,0.00,Wunderground v.1.15,2013-06-26 02:05:00,
2013-06-25 21:10:00,78.1,71.4,29.58,SSE,162,0.0,0.0,80,0.00,,,0.00,Wunderground v.1.15,2013-06-26 02:10:00,
2013-06-25 21:15:00,78.1,71.4,29.57,SSE,162,0.0,0.0,80,0.00,,,0.00,Wunderground v.1.15,2013-06-26 02:15:00,
2013-06-25 21:25:00,77.9,71.6,29.57,SSE,162,0.0,0.0,81,0.00,,,0.00,Wunderground v.1.15,2013-06-26 02:25:00,
2013-06-25 21:30:00,77.7,71.4,29.57,South,189,0.0,0.0,81,0.00,,,0.00,Wunderground v.1.15,2013-06-26 02:30:00,
2013-06-25 21:40:00,77.6,71.7,29.57,SSE,164,0.0,0.0,82,0.00,,,0.00,Wunderground v.1.15,2013-06-26 02:40:00,
2013-06-25 21:50:00,77.4,71.8,29.58,SSE,168,0.0,0.0,83,0.00,,,0.00,Wunderground v.1.15,2013-06-26 02:50:00,
2013-06-25 22:00:00,77.2,72.0,29.58,SSE,157,0.0,0.0,84,0.00,,,0.00,Wunderground v.1.15,2013-06-26 03:00:00,
2013-06-25 22:10:00,76.8,71.9,29.58,SE,133,0.0,0.0,85,0.00,,,0.00,Wunderground v.1.15,2013-06-26 03:10:00,
2013-06-25 22:15:00,76.8,71.9,29.58,SE,127,0.0,0.0,85,0.00,,,0.00,Wunderground v.1.15,2013-06-26 03:15:00,
2013-06-25 22:25:00,76.7,72.2,29.58,SE,131,0.0,0.0,86,0.00,,,0.00,Wunderground v.1.15,2013-06-26 03:25:00,
2013-06-25 22:35:00,76.3,72.1,29.59,SSE,164,0.0,0.0,87,0.00,,,0.00,Wunderground v.1.15,2013-06-26 03:35:00,
2013-06-25 22:45:00,76.1,72.3,29.59,SSE,164,0.0,0.0,88,0.00,,,0.00,Wunderground v.1.15,2013-06-26 03:45:00,
2013-06-25 22:55:00,75.8,72.0,29.59,SSE,165,0.0,0.0,88,0.00,,,0.00,Wunderground v.1.15,2013-06-26 03:55:00,
2013-06-25 23:05:00,75.6,72.1,29.60,SSE,160,0.0,0.0,89,0.00,,,0.00,Wunderground v.1.15,2013-06-26 04:05:00,
2013-06-25 23:10:00,75.4,72.3,29.60,SSE,160,0.0,0.0,90,0.00,,,0.00,Wunderground v.1.15,2013-06-26 04:10:00,
2013-06-25 23:15:00,75.3,72.2,29.58,SSE,161,0.0,0.0,90,0.00,,,0.00,Wunderground v.1.15,2013-06-26 04:15:00,
2013-06-25 23:20:00,75.3,72.5,29.58,SSE,164,0.0,0.0,91,0.00,,,0.00,Wunderground v.1.15,2013-06-26 04:20:00,
2013-06-25 23:30:00,74.9,72.1,29.58,SSE,164,0.0,0.0,91,0.00,,,0.00,Wunderground v.1.15,2013-06-26 04:30:00,
2013-06-25 23:40:00,74.9,72.4,29.58,SE,130,0.0,0.0,92,0.00,,,0.00,Wunderground v.1.15,2013-06-26 04:40:00,
2013-06-25 23:50:00,74.7,72.2,29.56,SSE,158,0.0,0.0,92,0.00,,,0.00,Wunderground v.1.15,2013-06-26 04:50:00,